Change the Weather History Date:

Thursday, June 5, 2014

  Actual Average Record
Temperature  
Mean Temperature 76 °F 79 °F  
Max Temperature 87 °F 87 °F 98 °F (1998)
Min Temperature 65 °F 71 °F 65 °F (1984)
Degree Days  
Heating Degree Days 0 0  
Month to date heating degree days 0 0  
Since 1 June heating degree days 0 0  
Since 1 July heating degree days 268 456  
Cooling Degree Days 11 14  
Month to date cooling degree days 61 70  
Year to date cooling degree days 987 876  
Since 1 June cooling degree days 61 70  
Growing Degree Days 25 (Base 50)    
Moisture  
Dew Point 67 °F    
Average Humidity 74    
Maximum Humidity 100    
Minimum Humidity 48    
Precipitation  
Precipitation 0.00 in 0.20 in 2.25 in (1991)
Month to date precipitation 0.17 0.98  
Year to date precipitation 13.35 16.35  
Sea Level Pressure  
Sea Level Pressure 29.95 in    
Wind  
Wind Speed 6 mph (SE)    
Max Wind Speed 16 mph    
Max Gust Speed 19 mph    
Visibility 10 miles    
Events      
T = Trace of Precipitation, MM = Missing Value Source: NWS Daily Summary

Daily Weather History Graph

Daily Weather History Graph

Search for Another Location

Airport or City:

Trip Planner

Search our weather history database for the weather conditions in past years. The results will help you decide how hot, cold, wet, or windy it might be!

Date:

Astronomy

Jun. 05, 2014 Rise Set
Actual Time 6:25 AM EDT 8:14 PM EDT
Civil Twilight 5:59 AM EDT 8:41 PM EDT
Nautical Twilight 5:27 AM EDT 9:13 PM EDT
Astronomical Twilight 4:53 AM EDT 9:46 PM EDT
Moon 1:12 PM EDT (6/5) 1:08 AM EDT (6/5)
Length of Visible Light 14h 41m
Length of Day
13h 49m
Waxing Crescent, 48% of the Moon is Illuminated
Jun 5
Waxing Crescent
Jun 5
First Quarter
Jun 13
Full
Jun 19
Last Quarter
Jun 27
New

Hourly Weather History & Observations

Time (EDT) Temp. Heat Index Dew Point Humidity Pressure Visibility Wind Dir Wind Speed Gust Speed Precip Events Conditions
12:53 AM 72.0 °F - 66.9 °F 84% 29.96 in 10.0 mi South 3.5 mph - N/A   Clear
1:53 AM 69.1 °F - 66.0 °F 90% 29.96 in 10.0 mi Calm Calm - N/A   Partly Cloudy
2:53 AM 66.9 °F - 64.9 °F 93% 29.95 in 10.0 mi Calm Calm - N/A   Clear
3:53 AM 68.0 °F - 66.0 °F 93% 29.93 in 10.0 mi Calm Calm - N/A   Clear
4:53 AM 66.9 °F - 66.0 °F 97% 29.93 in 10.0 mi Calm Calm - N/A   Clear
5:53 AM 64.9 °F - 64.0 °F 97% 29.94 in 10.0 mi Calm Calm - N/A   Clear
6:53 AM 66.0 °F - 64.9 °F 96% 29.95 in 10.0 mi Calm Calm - N/A   Clear
7:53 AM 73.9 °F - 69.1 °F 85% 29.96 in 10.0 mi Calm Calm - N/A   Clear
8:53 AM 79.0 °F - 68.0 °F 69% 29.97 in 10.0 mi SW 4.6 mph - N/A   Clear
9:53 AM 81.0 °F 83.0 °F 66.0 °F 60% 29.97 in 10.0 mi Calm Calm - N/A   Clear
10:53 AM 84.9 °F 87.1 °F 66.0 °F 53% 29.96 in 10.0 mi Variable 3.5 mph - N/A   Mostly Cloudy
11:53 AM 84.9 °F 87.6 °F 66.9 °F 55% 29.96 in 10.0 mi East 6.9 mph - N/A   Mostly Cloudy
12:53 PM 86.0 °F 87.6 °F 64.9 °F 49% 29.96 in 10.0 mi East 11.5 mph - N/A   Scattered Clouds
1:53 PM 86.0 °F 87.6 °F 64.9 °F 49% 29.95 in 10.0 mi East 12.7 mph - N/A   Clear
2:53 PM 84.9 °F 87.6 °F 66.9 °F 55% 29.94 in 10.0 mi ESE 10.4 mph - N/A   Scattered Clouds
3:53 PM 84.0 °F 88.4 °F 70.0 °F 63% 29.92 in 10.0 mi East 10.4 mph - N/A   Clear
4:53 PM 84.0 °F 87.8 °F 69.1 °F 61% 29.91 in 10.0 mi ESE 11.5 mph - N/A   Clear
5:53 PM 82.9 °F 86.5 °F 69.1 °F 63% 29.91 in 10.0 mi ESE 11.5 mph - N/A   Clear
6:53 PM 82.0 °F 84.9 °F 68.0 °F 62% 29.93 in 10.0 mi ESE 10.4 mph - N/A   Clear
7:53 PM 80.1 °F 82.7 °F 68.0 °F 67% 29.94 in 10.0 mi SE 10.4 mph - N/A   Clear
8:53 PM 79.0 °F - 68.0 °F 69% 29.96 in 10.0 mi SSE 10.4 mph - N/A   Clear
9:53 PM 79.0 °F - 66.9 °F 66% 29.98 in 10.0 mi SSE 8.1 mph - N/A   Clear
10:53 PM 78.1 °F - 66.9 °F 68% 29.99 in 10.0 mi SSE 6.9 mph - N/A   Clear
11:53 PM 75.9 °F - 66.9 °F 74% 29.98 in 10.0 mi South 8.1 mph - N/A   Clear